TimeBST,TemperatureF,Dew PointF,Humidity,Sea Level PressureIn,VisibilityMPH,Wind Direction,Wind SpeedMPH,Gust SpeedMPH,PrecipitationIn,Events,Conditions,WindDirDegrees,DateUTC
12:50 AM,53,49,83,29.67,16,WSW,9.2,,,,Partly Cloudy,240,2012-10-18 23:50:00
12:50 AM,53.6,50.0,88,29.65,6.2,WSW,9.2,-,N/A,,Scattered Clouds,240,2012-10-18 23:50:00
1:50 AM,51.8,50.0,94,29.65,6.2,SW,9.2,-,N/A,,Scattered Clouds,230,2012-10-19 00:50:00
2:50 AM,51.8,48.2,88,29.68,6.2,SW,6.9,-,N/A,,Scattered Clouds,230,2012-10-19 01:50:00
3:50 AM,50,48,89,29.70,16,SW,4.6,,,,Scattered Clouds,220,2012-10-19 02:50:00
3:50 AM,50.0,48.2,94,29.68,6.2,SW,4.6,-,N/A,,Scattered Clouds,220,2012-10-19 02:50:00
4:50 AM,48.2,46.4,93,29.68,6.2,South,2.3,-,N/A,,Scattered Clouds,180,2012-10-19 03:50:00
5:50 AM,46.4,44.6,93,29.68,6.2,SSE,2.3,-,N/A,,Mostly Cloudy,160,2012-10-19 04:50:00
6:50 AM,46,46,97,29.72,16,South,4.6,,,,Scattered Clouds,190,2012-10-19 05:50:00
6:50 AM,46.4,46.4,100,29.71,6.2,South,4.6,-,N/A,,Scattered Clouds,190,2012-10-19 05:50:00
7:50 AM,50.0,48.2,94,29.71,6.2,South,5.8,-,N/A,,Scattered Clouds,190,2012-10-19 06:50:00
8:50 AM,50.0,48.2,94,29.71,6.2,SSW,5.8,-,N/A,,Mostly Cloudy,200,2012-10-19 07:50:00
9:50 AM,50,48,90,29.75,16,SSW,3.5,,,,Partly Cloudy,210,2012-10-19 08:50:00
9:50 AM,50.0,48.2,94,29.74,6.2,SSW,3.5,-,N/A,,Mostly Cloudy,210,2012-10-19 08:50:00
10:50 AM,53.6,50.0,88,29.74,6.2,South,4.6,-,N/A,,Mostly Cloudy,190,2012-10-19 09:50:00
11:50 AM,55.4,50.0,82,29.74,6.2,SW,4.6,-,N/A,,Mostly Cloudy,220,2012-10-19 10:50:00
12:50 PM,57,51,74,29.75,16,SW,5.8,,,,Partly Cloudy,220,2012-10-19 11:50:00
12:50 PM,57.2,51.8,82,29.74,6.2,SW,5.8,-,N/A,,Scattered Clouds,220,2012-10-19 11:50:00
1:50 PM,55.4,51.8,88,29.74,6.2,WSW,5.8,-,N/A,,Mostly Cloudy,240,2012-10-19 12:50:00
2:50 PM,55.4,51.8,88,29.74,6.2,WSW,5.8,-,N/A,,Mostly Cloudy,240,2012-10-19 13:50:00
3:50 PM,55,51,81,29.75,16,SW,5.8,,,,Partly Cloudy,220,2012-10-19 14:50:00
3:50 PM,55.4,51.8,88,29.74,6.2,SW,5.8,-,N/A,,Mostly Cloudy,220,2012-10-19 14:50:00
4:50 PM,55.4,51.8,88,29.77,6.2,SW,5.8,-,N/A,,Mostly Cloudy,230,2012-10-19 15:50:00
5:50 PM,55.4,51.8,88,29.77,6.2,SW,4.6,-,N/A,,Mostly Cloudy,230,2012-10-19 16:50:00
6:50 PM,53,51,88,29.81,16,SW,5.8,,,,Mostly Cloudy,220,2012-10-19 17:50:00
6:50 PM,53.6,50.0,88,29.80,6.2,SW,5.8,-,N/A,,Scattered Clouds,220,2012-10-19 17:50:00
7:50 PM,53.6,50.0,88,29.80,6.2,SSW,6.9,-,N/A,,Haze,210,2012-10-19 18:50:00
8:50 PM,51.8,50.0,94,29.80,6.2,SW,6.9,-,N/A,,Haze,230,2012-10-19 19:50:00
9:50 PM,51.8,50.0,94,29.83,6.2,WSW,6.9,-,N/A,,Haze,240,2012-10-19 20:50:00
10:50 PM,51.8,50.0,94,29.83,6.2,SW,8.1,-,N/A,,Scattered Clouds,220,2012-10-19 21:50:00
11:50 PM,53.6,50.0,88,29.83,6.2,SW,8.1,-,N/A,,Scattered Clouds,220,2012-10-19 22:50:00